Beatrice, NE

3:02 PM CDT on June 23, 2017 (GMT -0500)
Beatrice Municipal

Weather History for KBIE - June, 2013

Change the Weather History Date:

Tuesday, June 25, 2013

  Actual Average Record
Temperature  
Mean Temperature 81 °F -  
Max Temperature 91 °F 88 °F 102 °F (1952)
Min Temperature 71 °F 64 °F 44 °F (2004)
Cooling Degree Days 16    
Growing Degree Days 31 (Base 50)    
Moisture  
Dew Point 70 °F    
Average Humidity 66    
Maximum Humidity 91    
Minimum Humidity 49    
Precipitation  
Precipitation 0.07 in - - ()
Sea Level Pressure  
Sea Level Pressure 29.72 in    
Wind  
Wind Speed 17 mph (South)    
Max Wind Speed 25 mph    
Max Gust Speed 33 mph    
Visibility 10 miles    
Events Rain , Thunderstorm    
Averages and records for this station are not official NWS values.
T = Trace of Precipitation, MM = Missing Value Source: NWS Daily Summary

Daily Weather History Graph

Daily Weather History Graph

Search for Another Location

Airport or City:

Trip Planner

Search our weather history database for the weather conditions in past years. The results will help you decide how hot, cold, wet, or windy it might be!

Date:

Astronomy

Jun. 25, 2013 Rise Set
Actual Time 5:58 AM CDT 9:00 PM CDT
Civil Twilight 5:25 AM CDT 9:33 PM CDT
Nautical Twilight 4:43 AM CDT 10:15 PM CDT
Astronomical Twilight 3:54 AM CDT 11:05 PM CDT
Moon 10:46 PM CDT (6/25) 8:40 AM CDT (6/25)
Length of Visible Light 16h 08m
Length of Day
15h 02m
Waning Gibbous, 92% of the Moon is Illuminated
Jun 25
Waning Gibbous
Jun 29
Last Quarter
Jul 8
New
Jul 15
First Quarter
Jul 22
Full

Hourly Weather History & Observations

Time (CDT) Temp. Heat Index Dew Point Humidity Pressure Visibility Wind Dir Wind Speed Gust Speed Precip Events Conditions
12:15 AM 81.0 °F 83.2 °F 66.4 °F 61% 29.74 in 10.0 mi South 21.9 mph 28.8 mph N/A   Clear
12:35 AM 81.0 °F 83.4 °F 67.1 °F 63% 29.74 in 10.0 mi South 21.9 mph 31.1 mph N/A   Clear
12:55 AM 80.6 °F 83.1 °F 67.5 °F 64% 29.74 in 10.0 mi South 24.2 mph 29.9 mph N/A   Clear
1:15 AM 80.6 °F 83.2 °F 68.0 °F 65% 29.75 in 10.0 mi South 25.3 mph 33.4 mph N/A   Clear
1:35 AM 79.9 °F - 68.0 °F 67% 29.76 in 10.0 mi South 21.9 mph 28.8 mph N/A   Clear
1:55 AM 79.9 °F - 68.2 °F 67% 29.76 in 10.0 mi South 20.7 mph 28.8 mph N/A   Clear
2:15 AM 79.9 °F - 68.4 °F 68% 29.76 in 10.0 mi South 19.6 mph 28.8 mph N/A   Clear
2:35 AM 79.3 °F - 68.4 °F 69% 29.75 in 10.0 mi South 19.6 mph 26.5 mph N/A   Clear
2:55 AM 79.2 °F - 68.4 °F 69% 29.74 in 10.0 mi South 20.7 mph 26.5 mph N/A   Clear
3:15 AM 78.8 °F - 68.2 °F 70% 29.74 in 10.0 mi South 16.1 mph 24.2 mph N/A   Clear
3:35 AM 78.3 °F - 68.5 °F 72% 29.75 in 10.0 mi South 13.8 mph - N/A   Clear
3:55 AM 77.9 °F - 68.9 °F 74% 29.75 in 10.0 mi South 10.4 mph - N/A   Clear
4:15 AM 77.0 °F - 69.3 °F 77% 29.73 in 10.0 mi South 5.8 mph - N/A   Clear
4:35 AM 76.3 °F - 69.3 °F 79% 29.73 in 10.0 mi SSW 6.9 mph - N/A Thunderstorm Clear
4:55 AM 76.1 °F - 67.6 °F 75% 29.74 in 10.0 mi SW 16.1 mph 24.2 mph N/A   Clear
5:15 AM 78.6 °F - 58.3 °F 50% 29.74 in 10.0 mi SW 23.0 mph 27.6 mph N/A   Scattered Clouds
5:35 AM 78.1 °F - 59.9 °F 53% 29.75 in 10.0 mi SSW 21.9 mph 31.1 mph N/A   Scattered Clouds
5:55 AM 77.0 °F - 59.7 °F 55% 29.78 in 10.0 mi SW 15.0 mph 25.3 mph N/A Thunderstorm Scattered Clouds
6:15 AM 75.6 °F - 60.8 °F 60% 29.81 in 10.0 mi SW 17.3 mph 31.1 mph N/A Rain , Thunderstorm Light Thunderstorms and Rain
6:35 AM 71.4 °F - 65.1 °F 80% 29.82 in 7.0 mi South 9.2 mph - 0.04 in Rain , Thunderstorm Thunderstorms and Rain
6:55 AM 71.1 °F - 64.9 °F 81% 29.80 in 7.0 mi South 17.3 mph 25.3 mph 0.07 in Rain Light Rain
7:15 AM 71.8 °F - 65.7 °F 81% 29.78 in 10.0 mi South 18.4 mph 25.3 mph N/A   Scattered Clouds
7:35 AM 73.2 °F - 64.0 °F 73% 29.78 in 10.0 mi SSE 17.3 mph 29.9 mph N/A   Mostly Cloudy
7:55 AM 71.6 °F - 63.0 °F 74% 29.79 in 10.0 mi South 20.7 mph 25.3 mph N/A Rain Light Rain
8:15 AM 71.1 °F - 62.8 °F 75% 29.77 in 10.0 mi SSE 19.6 mph 26.5 mph N/A   Scattered Clouds
8:35 AM 72.5 °F - 62.6 °F 71% 29.78 in 10.0 mi SSE 19.6 mph 27.6 mph N/A   Mostly Cloudy
8:55 AM 74.1 °F - 62.1 °F 66% 29.77 in 10.0 mi SSE 13.8 mph 20.7 mph N/A   Overcast
9:15 AM 75.9 °F - 63.0 °F 64% 29.77 in 10.0 mi SSE 17.3 mph 21.9 mph N/A   Mostly Cloudy
9:35 AM 78.3 °F - 62.6 °F 58% 29.77 in 10.0 mi South 19.6 mph 27.6 mph N/A   Scattered Clouds
9:55 AM 81.5 °F 82.9 °F 63.7 °F 55% 29.77 in 10.0 mi South 16.1 mph 24.2 mph N/A   Scattered Clouds
10:15 AM 81.5 °F 83.6 °F 66.0 °F 59% 29.75 in 10.0 mi South 19.6 mph 27.6 mph N/A   Scattered Clouds
10:35 AM 80.6 °F 83.2 °F 67.6 °F 65% 29.75 in 10.0 mi SSE 20.7 mph 25.3 mph N/A   Clear
10:55 AM 81.5 °F 84.8 °F 69.3 °F 66% 29.74 in 10.0 mi SSE 17.3 mph 24.2 mph N/A   Clear
11:15 AM 81.5 °F 84.9 °F 69.6 °F 67% 29.73 in 10.0 mi SSE 19.6 mph 25.3 mph N/A   Clear
11:35 AM 82.9 °F 87.2 °F 70.3 °F 66% 29.73 in 10.0 mi South 23.0 mph 31.1 mph N/A   Clear
12:15 PM 83.1 °F 87.6 °F 70.9 °F 66% 29.72 in 10.0 mi South 17.3 mph 29.9 mph N/A   Clear
12:35 PM 84.6 °F 89.7 °F 71.2 °F 64% 29.73 in 10.0 mi South 21.9 mph 27.6 mph N/A   Scattered Clouds
12:55 PM 85.5 °F 90.8 °F 71.1 °F 62% 29.72 in 10.0 mi South 20.7 mph 27.6 mph N/A   Scattered Clouds
1:15 PM 85.6 °F 91.5 °F 71.8 °F 63% 29.71 in 10.0 mi South 17.3 mph - N/A   Scattered Clouds
1:35 PM 86.0 °F 91.8 °F 71.4 °F 62% 29.71 in 10.0 mi South 17.3 mph - N/A   Scattered Clouds
1:55 PM 86.9 °F 93.3 °F 72.0 °F 61% 29.70 in 10.0 mi South 17.3 mph 27.6 mph N/A   Scattered Clouds
2:15 PM 87.8 °F 94.7 °F 72.5 °F 60% 29.70 in 10.0 mi South 15.0 mph 21.9 mph N/A   Scattered Clouds
2:35 PM 88.7 °F 96.2 °F 72.7 °F 59% 29.69 in 10.0 mi South 13.8 mph 23.0 mph N/A   Scattered Clouds
2:55 PM 88.9 °F 96.6 °F 72.7 °F 59% 29.69 in 10.0 mi SSE 17.3 mph 20.7 mph N/A   Scattered Clouds
3:15 PM 89.2 °F 96.9 °F 72.9 °F 58% 29.69 in 10.0 mi South 11.5 mph - N/A   Scattered Clouds
3:35 PM 90.9 °F 98.9 °F 72.9 °F 55% 29.69 in 10.0 mi SSE 17.3 mph 21.9 mph N/A   Scattered Clouds
3:55 PM 89.2 °F 96.4 °F 72.0 °F 57% 29.68 in 10.0 mi SSE 13.8 mph 18.4 mph N/A   Mostly Cloudy
4:15 PM 89.6 °F 96.6 °F 72.1 °F 56% 29.68 in 10.0 mi South 16.1 mph 24.2 mph N/A   Mostly Cloudy
4:35 PM 90.1 °F 97.8 °F 72.5 °F 56% 29.67 in 10.0 mi SSE 12.7 mph 21.9 mph N/A   Scattered Clouds
4:38 PM 89.6 °F 98.2 °F 73.4 °F 59% 29.67 in 10.0 mi SSE 16.1 mph - N/A   Scattered Clouds
4:55 PM 90.5 °F 98.1 °F 72.5 °F 55% 29.66 in 10.0 mi South 15.0 mph 20.7 mph N/A   Scattered Clouds
5:15 PM 91.4 °F 98.9 °F 72.0 °F 53% 29.67 in 10.0 mi South 11.5 mph - N/A   Clear
5:35 PM 91.8 °F 98.1 °F 70.7 °F 50% 29.66 in 10.0 mi South 10.4 mph - N/A   Clear
5:55 PM 91.8 °F 97.5 °F 70.0 °F 49% 29.66 in 10.0 mi South 11.5 mph - N/A   Clear
6:15 PM 91.4 °F 97.8 °F 71.1 °F 51% 29.66 in 10.0 mi South 12.7 mph - N/A   Clear
6:35 PM 90.5 °F 97.5 °F 72.0 °F 54% 29.65 in 7.0 mi South 12.7 mph - N/A   Clear
6:55 PM 89.6 °F 97.2 °F 72.3 °F 57% 29.66 in 10.0 mi SSE 10.4 mph - N/A   Scattered Clouds
7:15 PM 88.9 °F 96.1 °F 72.5 °F 58% 29.66 in 10.0 mi SSE 9.2 mph - N/A   Scattered Clouds
7:35 PM 88.0 °F 95.6 °F 73.0 °F 61% 29.66 in 10.0 mi ESE 4.6 mph - N/A   Mostly Cloudy
7:55 PM 87.8 °F 96.1 °F 73.8 °F 63% 29.66 in 10.0 mi SE 5.8 mph - N/A   Mostly Cloudy
8:15 PM 87.1 °F 94.9 °F 73.8 °F 64% 29.67 in 10.0 mi ESE 4.6 mph - N/A   Mostly Cloudy
8:35 PM 86.2 °F 94.6 °F 74.3 °F 68% 29.67 in 10.0 mi ESE 4.6 mph - N/A   Mostly Cloudy
8:55 PM 85.3 °F 93.7 °F 75.0 °F 71% 29.67 in 10.0 mi ESE 4.6 mph - N/A   Mostly Cloudy
9:15 PM 84.0 °F 92.6 °F 75.6 °F 76% 29.66 in 10.0 mi SE 3.5 mph - N/A   Scattered Clouds
9:35 PM 84.0 °F 91.2 °F 74.3 °F 72% 29.67 in 10.0 mi Calm Calm - N/A   Clear
9:55 PM 82.9 °F 90.2 °F 75.2 °F 77% 29.67 in 10.0 mi East 4.6 mph - N/A   Clear
10:15 PM 81.7 °F 88.7 °F 76.1 °F 83% 29.68 in 10.0 mi East 3.5 mph - N/A   Clear
10:35 PM 80.1 °F 85.2 °F 75.6 °F 86% 29.70 in 10.0 mi Calm Calm - N/A   Clear
10:55 PM 79.0 °F - 75.7 °F 90% 29.70 in 10.0 mi NW 4.6 mph - N/A   Clear
11:15 PM 79.9 °F - 75.6 °F 87% 29.70 in 10.0 mi East 3.5 mph - N/A   Clear
11:35 PM 79.0 °F - 75.4 °F 89% 29.69 in 10.0 mi Calm Calm - N/A   Clear
11:55 PM 77.5 °F - 74.8 °F 91% 29.70 in 10.0 mi WSW 3.5 mph - N/A   Clear